[[{"header":{"parameterUnit":"m.s-1","parameterCategory":1,"la1":30.2991,"la2":30.254,"lo1":-89.0895,"lo2":-89.0444,"dy":0.0017,"dx":0.0017,"nx":28,"ny":28,"refTime":"2024-12-14T03:00:00:Z","depth":0,"parameterNumber":2,"parameterNumberName":"U-component_of_WINDS"},"data":[0,0,0,0,0,0,0,0,0,0,0,0,0,0,0,0,0,0,0,0,0,0,0,0,0,0,0,0,0,0,0,0,0,0,0,0,0,0,0,0,0,0,0,0,0,0,0,0,0,0,0,0,0,0,0,0,0,0,-5.7247,-5.7247,0,-5.7262,-5.7262,-5.7262,-5.7153,-5.715,-5.7147,-5.7144,-5.7158,-5.7161,-5.7165,0,0,0,0,0,0,0,0,0,0,0,0,0,-5.7122,-5.7125,-5.7246,-5.7247,-5.7247,-5.7262,-5.7262,-5.7262,-5.7153,-5.7149,-5.7146,-5.7142,-5.7157,-5.7161,-5.7165,0,0,0,0,0,0,0,0,0,0,0,0,0,-5.7161,-5.7126,-5.7246,-5.7194,-5.719,-5.7262,-5.7262,-5.7262,-5.7154,-5.7149,-5.7145,-5.714,-5.7156,-5.7161,-5.7165,-5.7288,0,0,-5.718,-5.7182,0,0,0,0,0,0,0,0,-5.7159,-5.7165,-5.7202,-5.7198,-5.7193,-5.7201,-5.7223,-5.7271,-5.7155,-5.7168,-5.7144,-5.7138,-5.7176,-5.7179,-5.7192,-5.7289,-5.7289,-5.7181,-5.7184,-5.7186,-5.7187,0,0,0,0,0,0,0,-5.7156,-5.7164,-5.7252,-5.7202,-5.7197,-5.717,-5.717,-5.7232,-5.7197,-5.7166,-5.7158,-5.7162,-5.7173,-5.7188,-5.7191,-5.7289,-5.7181,-5.7185,-5.7188,-5.719,-5.7488,-5.7492,0,0,0,0,0,0,-5.7161,-5.7163,-5.7252,-5.7253,-5.7164,-5.7176,-5.7176,-5.7203,-5.7196,-5.7191,-5.7166,-5.7156,-5.7181,-5.7186,-5.7192,-5.7334,-5.7186,-5.719,-5.7193,-5.7483,-5.7489,-5.7494,0,0,0,0,0,0,-5.7158,-5.717,-5.7251,-5.7206,-5.7214,-5.7183,-5.7214,-5.7206,-5.722,-5.7196,-5.7189,-5.7187,-5.7178,-5.7185,-5.7265,-5.7333,-5.7193,-5.7197,-5.7477,-5.7485,-5.7492,-5.7621,0,0,0,0,0,0,-5.7155,-5.7169,-5.7216,-5.7208,-5.7217,-5.7325,-5.7218,-5.7209,-5.7229,-5.7217,-5.7214,-5.7209,-5.7175,-5.7258,-5.727,-5.7337,-5.7201,-5.7471,-5.748,-5.7489,-5.761,-5.7632,-5.765,0,0,0,0,0,-5.7151,-5.7251,-5.7218,-5.723,-5.7274,-5.7329,-5.7334,-5.7293,-5.7235,-5.7281,-5.7266,-5.7209,-5.7324,-5.7267,-5.7279,-5.7349,-5.7466,-5.7478,-5.7488,-5.7601,-5.7627,-5.765,0,0,0,0,0,0,-5.7267,-5.7249,-5.7213,-5.7313,-5.7324,-5.731,-5.7367,-5.7322,-5.7349,-5.7336,-5.7284,-5.7284,-5.7373,-5.7369,-5.7306,-5.7468,-5.7385,-5.7399,-5.7467,-5.7491,-5.7511,-5.7509,-5.7205,0,0,0,0,0,-5.7304,-5.7351,-5.7332,-5.7423,-5.743,-5.7398,-5.7421,-5.7388,-5.7397,-5.74,-5.7391,-5.7401,-5.7439,-5.7465,-5.7499,-5.761,-5.7607,-5.7664,-5.7684,-5.7701,-5.7713,-5.7771,-5.7796,-5.7531,-5.7531,-5.7531,0,0,-5.7381,-5.7377,-5.741,-5.7446,-5.745,-5.7499,-5.7403,-5.7458,-5.7494,-5.7408,-5.7483,-5.7478,-5.7485,-5.7582,-5.7623,-5.7581,-5.7786,-5.7715,-5.7728,-5.7731,-5.7785,-5.781,-5.7832,-5.7539,-5.7537,-5.7536,0,0,-5.7547,-5.7549,-5.7624,-5.7631,-5.7639,-5.7618,-5.7636,-5.7631,-5.7623,-5.7698,-5.7635,-5.7677,-5.7744,-5.7752,-5.7766,-5.7937,-5.7886,-5.795,-5.8053,-5.811,-5.8131,-5.8149,-5.8209,-5.8232,-5.7962,-5.7963,-5.7963,0,-5.7641,-5.7713,-5.7668,-5.7729,-5.7747,-5.7673,-5.7749,-5.7757,-5.7776,-5.779,-5.7743,-5.7826,-5.7827,-5.7923,-5.7966,-5.7979,-5.7998,-5.7948,-5.8132,-5.8149,-5.8166,-5.8222,-5.8245,-5.797,-5.7969,-5.7969,-5.7968,0,-5.7828,-5.7879,-5.7939,-5.796,-5.7985,-5.8053,-5.8019,-5.8049,-5.8016,-5.7999,-5.8077,-5.8075,-5.8107,-5.8128,-5.8095,-5.8221,-5.8194,-5.8141,-5.8056,-5.8199,-5.8252,-5.8273,-5.7981,-5.7978,-5.7976,-5.7974,0,0,-5.8064,-5.8061,-5.8084,-5.8093,-5.8097,-5.8136,-5.8201,-5.8233,-5.826,-5.8277,-5.8329,-5.8389,-5.834,-5.8355,-5.8322,-5.8373,-5.8508,-5.8313,-5.8312,-5.8348,-5.8646,-5.8685,-5.871,-5.8475,-5.8479,-5.8483,-5.8644,0,-5.8224,-5.8335,-5.8298,-5.841,-5.8457,-5.8389,-5.8445,-5.8455,-5.8442,-5.8479,-5.8465,-5.8508,-5.844,-5.8448,-5.8496,-5.8482,-5.8567,-5.847,-5.8523,-5.8525,-5.8521,-5.8738,-5.8779,-5.8931,-5.8665,-5.8668,-5.8671,0,-5.8425,-5.845,-5.8568,-5.8566,-5.8584,-5.8635,-5.8662,-5.8699,-5.8709,-5.8696,-5.8714,-5.8672,-5.8735,-5.8653,-5.8739,-5.8674,-5.8694,-5.8691,-5.8696,-5.8697,-5.8605,-5.8744,-5.8979,-5.9002,-5.8703,-5.87,-5.8698,0,-5.8584,-5.8647,-5.8726,-5.8736,-5.8735,-5.8773,-5.8775,-5.878,-5.8802,-5.8826,-5.884,-5.8871,-5.8888,-5.8913,-5.888,-5.8823,-5.8972,-5.8886,-5.8962,-5.8963,-5.8994,-5.8992,-5.9234,-5.9011,-5.901,-5.901,-5.9009,0,-5.8765,-5.8839,-5.8797,-5.8845,-5.8926,-5.8884,-5.8965,-5.8959,-5.8965,-5.901,-5.8954,-5.8998,-5.8953,-5.8993,-5.8968,-5.9043,-5.9051,-5.9042,-5.9034,-5.9046,-5.9047,-5.9057,-5.9044,-5.9016,-5.9015,-5.9013,-5.9012,0,-5.8954,-5.8929,-5.901,-5.9004,-5.9005,-5.9065,-5.9059,-5.9103,-5.9088,-5.9146,-5.9157,-5.9133,-5.9177,-5.9147,-5.9191,-5.9175,-5.9273,-5.9251,-5.927,-5.9263,-5.9339,-5.9332,-5.9594,-5.9626,-5.9385,-5.9387,-5.9389,0,-5.9071,-5.9126,-5.9127,-5.9154,-5.9159,-5.9204,-5.9226,-5.9188,-5.9214,-5.923,-5.9272,-5.9312,-5.9341,-5.9415,-5.94,-5.9434,-5.9411,-5.9501,-5.9416,-5.9426,-5.9411,-5.9407,-5.9412,-5.9517,-5.952,-5.9523,-5.9525,0,-5.9279,-5.9265,-5.93,-5.9332,-5.9361,-5.9384,-5.9402,-5.9427,-5.9388,-5.9421,-5.9465,-5.9488,-5.9534,-5.9574,-5.9603,-5.9604,-5.9558,-5.9552,-5.9571,-5.9582,-5.959,-5.9585,-5.9314,-5.9546,-5.9543,-5.9542,-5.9541,-5.954,-5.9434,-5.948,-5.9489,-5.953,-5.954,-5.9559,-5.96,-5.9591,-5.9628,-5.9662,-5.9638,-5.9691,-5.97,-5.9733,-5.9741,-5.9782,-5.9745,-5.9773,-5.9779,-5.9786,-5.9796,-5.9586,-5.9787,-5.9786,-5.9786,-5.9785,-5.9785,0,-5.9638,-5.9641,-5.968,-5.9707,-5.974,-5.9697,-5.9715,-5.9745,-5.9793,-5.9806,-5.9836,-5.9888,-5.9927,-5.9917,-5.9952,-5.9987,-5.9966,-5.9997,-5.9992,-5.9993,-5.9828,-5.9807,-6.0013,-6.0013,-6.0012,-6.0012,-6.0012,-6.0012,-5.9748,-5.9824,-5.9811,-5.9892,-5.9893,-5.9946,-5.996,-5.9977,-5.9987,-6.0048,-6.008,-6.0074,-6.0077,-6.0112,-6.0146,-6.0142,-6.0157,-6.0195,-6.0183,-6.0028,-6.0005,-5.9984,-5.9964,-6.0199,-6.0199,-6.0345,-6.0346,-6.0347]},{"header":{"parameterUnit":"m.s-1","parameterCategory":1,"la1":30.2991,"la2":30.254,"lo1":-89.0895,"lo2":-89.0444,"dy":0.0017,"dx":0.0017,"nx":28,"ny":28,"refTime":"2024-12-14T03:00:00:Z","depth":0,"parameterNumber":3,"parameterNumberName":"V-component_of_WINDS"},"data":[0,0,0,0,0,0,0,0,0,0,0,0,0,0,0,0,0,0,0,0,0,0,0,0,0,0,0,0,0,0,0,0,0,0,0,0,0,0,0,0,0,0,0,0,0,0,0,0,0,0,0,0,0,0,0,0,0,0,0.0101,0.0102,0,0.0165,0.0166,0.0166,0.0223,0.0223,0.0224,0.0225,0.0288,0.0289,0.029,0,0,0,0,0,0,0,0,0,0,0,0,0,0.0027,0.0028,0.0101,0.0102,0.0103,0.0165,0.0166,0.0167,0.0223,0.0223,0.0224,0.0225,0.0288,0.0289,0.029,0,0,0,0,0,0,0,0,0,0,0,0,0,0.0072,0.0029,0.0101,0.0138,0.0142,0.0165,0.0166,0.0167,0.0222,0.0223,0.0224,0.0225,0.0287,0.0289,0.029,0.0281,0,0,0.0295,0.0296,0,0,0,0,0,0,0,0,0.0069,0.0075,0.0132,0.0136,0.014,0.0187,0.0163,0.0205,0.0222,0.0192,0.0225,0.0226,0.0253,0.0258,0.0268,0.0284,0.0286,0.0295,0.0296,0.0297,0.0298,0,0,0,0,0,0,0,0.0066,0.0072,0.0126,0.0133,0.0138,0.0152,0.0159,0.0171,0.0216,0.0195,0.0199,0.0206,0.0256,0.0266,0.027,0.0287,0.0295,0.0297,0.0298,0.0298,0.0302,0.0301,0,0,0,0,0,0,0.0058,0.0069,0.0124,0.0128,0.0107,0.0152,0.0161,0.0171,0.0216,0.0224,0.0205,0.0208,0.0263,0.0268,0.0272,0.0266,0.0297,0.0299,0.03,0.0303,0.0302,0.0301,0,0,0,0,0,0,0.0056,0.0062,0.0122,0.01,0.0109,0.0152,0.0164,0.0172,0.0182,0.0224,0.0232,0.0207,0.0264,0.027,0.0279,0.0269,0.0299,0.0301,0.0304,0.0302,0.0301,0.0252,0,0,0,0,0,0,0.0053,0.0061,0.0057,0.01,0.011,0.0127,0.0163,0.0172,0.0185,0.019,0.0228,0.0236,0.0265,0.0276,0.0281,0.0272,0.0302,0.0305,0.0303,0.0302,0.0255,0.0249,0.0244,0,0,0,0,0,0.0051,0.004,0.0057,0.0063,0.0106,0.0127,0.0132,0.0167,0.0184,0.0181,0.0209,0.0234,0.0269,0.0277,0.0282,0.0273,0.0306,0.0304,0.0302,0.0257,0.025,0.0244,0,0,0,0,0,0,-0.0006,0.0046,0.0065,0.0068,0.0093,0.0136,0.0133,0.0158,0.0178,0.0182,0.0223,0.0232,0.0237,0.0256,0.0263,0.0268,0.0291,0.029,0.0255,0.0249,0.0244,0.0239,0.0303,0,0,0,0,0,-0.0018,-0.0006,0.0039,0.0037,0.0049,0.0089,0.0099,0.0124,0.0151,0.0161,0.0189,0.0214,0.0231,0.0241,0.0258,0.0258,0.0268,0.0255,0.0249,0.0245,0.0244,0.0247,0.0242,0.0294,0.0294,0.0294,0,0,-0.0043,-0.0013,-0.0008,0.0026,0.0048,0.0061,0.0097,0.0108,0.0118,0.0162,0.0174,0.0195,0.0226,0.0231,0.0234,0.0247,0.0232,0.0242,0.0238,0.024,0.0245,0.024,0.0235,0.0293,0.0293,0.0293,0,0,-0.0082,-0.0059,-0.0057,-0.0035,-0.0001,0.0026,0.0027,0.0067,0.0084,0.0096,0.0131,0.0143,0.017,0.0192,0.0206,0.0178,0.0204,0.0183,0.0156,0.0159,0.0155,0.0151,0.0143,0.014,0.0181,0.0181,0.0181,0,-0.0118,-0.0098,-0.0059,-0.0049,-0.0034,0.0009,0.0012,0.0031,0.0068,0.0078,0.0092,0.0129,0.0152,0.0164,0.0158,0.0167,0.017,0.0178,0.0152,0.0149,0.0147,0.0139,0.0136,0.0179,0.0179,0.0179,0.0179,0,-0.0142,-0.0128,-0.013,-0.0094,-0.0079,-0.0073,-0.0033,-0.0022,0.0002,0.0028,0.0041,0.0071,0.0097,0.0101,0.0124,0.0117,0.0124,0.0144,0.0169,0.0139,0.0133,0.013,0.0175,0.0176,0.0177,0.0177,0,0,-0.0216,-0.0156,-0.0158,-0.0139,-0.0098,-0.0086,-0.0077,-0.0051,-0.0042,-0.0017,-0.0008,0.0016,0.0036,0.0053,0.0079,0.0081,0.006,0.0102,0.0103,0.0094,0.0056,0.0042,0.0038,0.0077,0.0077,0.0076,0.0054,0,-0.0247,-0.0228,-0.0192,-0.0184,-0.017,-0.0127,-0.0119,-0.0093,-0.0068,-0.0051,-0.0024,-0.0007,0.0017,0.0028,0.0032,0.0061,0.0053,0.0063,0.0087,0.0087,0.0079,0.0034,0.0018,-0.0004,0.0052,0.0052,0.0051,0,-0.0282,-0.0257,-0.0248,-0.0204,-0.0197,-0.019,-0.0161,-0.0147,-0.0115,-0.0097,-0.0077,-0.0048,-0.0035,-0.0013,0.0006,0.0012,0.0024,0.004,0.004,0.0044,0.0068,0.0038,-0.001,-0.0013,0.0048,0.0048,0.0048,0,-0.0335,-0.03,-0.0288,-0.0274,-0.0224,-0.022,-0.0199,-0.0166,-0.0151,-0.0127,-0.0116,-0.0091,-0.0077,-0.0057,-0.0021,-0.0009,-0.0006,0.0019,0.0011,0.001,0.001,0.0009,-0.0037,0.0015,0.0015,0.0016,0.0016,0,-0.0373,-0.0368,-0.0311,-0.0304,-0.0297,-0.0255,-0.0249,-0.0224,-0.0195,-0.0182,-0.0144,-0.0133,-0.0087,-0.007,-0.0042,-0.0029,-0.0023,-0.0008,0.0,-0.001,-0.0012,-0.0002,0.0001,0.0015,0.0015,0.0015,0.0015,0,-0.0431,-0.0393,-0.0377,-0.033,-0.0318,-0.0315,-0.0274,-0.0265,-0.0237,-0.0221,-0.0215,-0.017,-0.0148,-0.011,-0.0078,-0.0059,-0.0051,-0.0039,-0.0061,-0.0056,-0.0066,-0.0065,-0.0106,-0.0108,-0.0056,-0.0057,-0.0057,0,-0.0457,-0.0452,-0.0403,-0.0391,-0.0371,-0.0353,-0.0337,-0.0295,-0.028,-0.0242,-0.0237,-0.0212,-0.0189,-0.0155,-0.012,-0.0094,-0.0081,-0.0097,-0.0077,-0.0086,-0.0079,-0.0079,-0.0077,-0.0101,-0.0102,-0.0103,-0.0103,0,-0.0507,-0.0488,-0.0466,-0.0437,-0.0419,-0.0395,-0.0368,-0.0361,-0.0312,-0.0297,-0.0273,-0.0256,-0.0221,-0.0195,-0.0164,-0.0142,-0.0114,-0.011,-0.011,-0.012,-0.0132,-0.0124,-0.0073,-0.0109,-0.0108,-0.0108,-0.0108,-0.0107,-0.0549,-0.0541,-0.0505,-0.0482,-0.0457,-0.0432,-0.0421,-0.039,-0.0369,-0.0337,-0.0313,-0.029,-0.0256,-0.0211,-0.019,-0.0171,-0.0159,-0.016,-0.016,-0.016,-0.0163,-0.0136,-0.0166,-0.0166,-0.0165,-0.0165,-0.0165,0,-0.0595,-0.0569,-0.0548,-0.0511,-0.0492,-0.0467,-0.0435,-0.0421,-0.0401,-0.0372,-0.0349,-0.032,-0.0295,-0.0257,-0.0228,-0.022,-0.0206,-0.0214,-0.0213,-0.0208,-0.0177,-0.0179,-0.0225,-0.0225,-0.0225,-0.0225,-0.0225,-0.0225,-0.0617,-0.0602,-0.0578,-0.055,-0.0524,-0.0501,-0.0485,-0.0461,-0.0437,-0.0406,-0.0384,-0.0359,-0.0326,-0.0294,-0.0269,-0.0258,-0.0248,-0.026,-0.0245,-0.0217,-0.0211,-0.0206,-0.0207,-0.0258,-0.0258,-0.0277,-0.0278,-0.0278]}]]